Location: Hilton Head Island
(32.2163°N, 80.7526°W)
Time: 16:40:41
(UTC-05:00)

Courier 1B - All Passes

Search period start: 18 February 2026 00:00
Search period end: 28 February 2026 00:00
Orbit: 962 x 1208 km, 28.3° (Epoch: 18 February)

Date Brightness Start Highest point End Pass type
(mag) Time Alt. Az. Time Alt. Az. Time Alt. Az.
18 Feb - 01:49:05 10° W 01:55:19 26° SSW 02:01:29 10° SSE night (unlit)
18 Feb - 17:21:14 10° S 17:25:47 18° SSE 17:30:28 10° ESE daylight
18 Feb - 19:12:30 10° SW 19:19:14 44° SSE 19:26:22 10° E visible
18 Feb - 21:05:53 10° WSW 21:13:14 66° S 21:20:58 10° E visible
18 Feb - 22:59:56 10° W 23:07:27 59° S 23:15:08 10° ESE visible
19 Feb - 00:54:37 10° W 01:01:24 33° SSW 01:08:11 10° SE night (unlit)
19 Feb - 02:52:59 10° SW 02:54:56 11° SSW 02:56:53 10° SSW night (unlit)
19 Feb - 16:29:17 10° S 16:32:05 13° SSE 16:34:55 10° ESE daylight
19 Feb - 18:19:04 10° SW 18:25:23 36° SSE 18:32:03 10° E daylight
19 Feb - 20:12:04 10° WSW 20:19:13 62° S 20:26:48 10° E visible
19 Feb - 22:05:58 10° W 22:13:24 63° S 22:21:08 10° ESE visible
20 Feb - 00:00:22 10° W 00:07:27 40° SSW 00:14:38 10° SE night (unlit)
20 Feb - 01:56:41 10° WSW 02:01:06 16° SSW 02:05:30 10° S night (unlit)
20 Feb - 17:25:51 10° SSW 17:31:36 29° SSE 17:37:38 10° E daylight
20 Feb - 19:18:20 10° WSW 19:25:16 56° SSE 19:32:37 10° E visible
20 Feb - 21:12:03 10° W 21:19:22 66° S 21:27:03 10° ESE visible
20 Feb - 23:06:14 10° W 23:13:28 47° SSW 23:20:54 10° SE visible
21 Feb - 01:01:38 10° WSW 01:07:14 21° SSW 01:12:50 10° SSE night (unlit)
21 Feb - 16:32:53 10° SSW 16:37:52 22° SSE 16:43:02 10° ESE daylight
21 Feb - 18:24:43 10° WSW 18:31:21 49° SSE 18:38:25 10° E visible
21 Feb - 20:18:12 10° W 20:25:20 66° S 20:32:56 10° E visible
21 Feb - 22:12:14 10° W 22:19:28 53° SSW 22:27:01 10° ESE visible
22 Feb - 00:07:04 10° W 00:13:20 27° SSW 00:19:42 10° SSE night (unlit)
22 Feb - 15:40:22 10° S 15:44:11 16° SSE 15:48:05 10° ESE daylight
22 Feb - 17:31:14 10° SW 17:37:31 41° SSE 17:44:11 10° E daylight
22 Feb - 19:24:24 10° WSW 19:31:22 64° S 19:38:47 10° E visible
22 Feb - 21:18:17 10° W 21:25:28 59° S 21:33:02 10° ESE visible
22 Feb - 23:12:45 10° W 23:19:24 34° SSW 23:26:16 10° SE night (unlit)
23 Feb - 01:10:13 10° SW 01:13:01 12° SSW 01:15:50 10° S night (unlit)
23 Feb - 14:49:10 10° SSE 14:50:31 11° SSE 14:51:53 10° SE daylight
23 Feb - 16:37:53 10° SW 16:43:45 33° SSE 16:49:54 10° E daylight
23 Feb - 18:30:41 10° WSW 18:37:26 60° S 18:44:37 10° E visible
23 Feb - 20:24:25 10° W 20:31:28 63° S 20:38:59 10° ESE visible
23 Feb - 22:18:37 10° W 22:25:28 40° SSW 22:32:36 10° SE visible
24 Feb - 00:14:32 10° WSW 00:19:10 17° SSW 00:23:50 10° S night (unlit)
24 Feb - 15:44:44 10° SSW 15:50:02 26° SSE 15:55:30 10° E daylight
24 Feb - 17:37:02 10° WSW 17:43:33 53° SSE 17:50:29 10° E daylight
24 Feb - 19:30:36 10° W 19:37:30 65° S 19:44:52 10° ESE visible
24 Feb - 21:24:37 10° W 21:31:31 47° SSW 21:38:48 10° SE visible
24 Feb - 23:19:44 10° WSW 23:25:17 22° SSW 23:30:58 10° SSE night (unlit)
25 Feb - 14:51:53 10° SSW 14:56:21 19° SSE 15:00:55 10° ESE daylight
25 Feb - 16:43:28 10° SW 16:49:44 46° SSE 16:56:20 10° E daylight
25 Feb - 18:36:50 10° WSW 18:43:34 65° S 18:50:46 10° E visible
25 Feb - 20:30:43 10° W 20:37:35 53° SSW 20:44:52 10° ESE visible
25 Feb - 22:25:19 10° W 22:31:24 28° SSW 22:37:43 10° SSE visible
26 Feb - 13:59:31 10° S 14:02:41 14° SSE 14:05:54 10° ESE daylight
26 Feb - 15:50:01 10° SW 15:55:59 38° SSE 16:02:10 10° E daylight
26 Feb - 17:43:06 10° WSW 17:49:41 62° S 17:56:40 10° E daylight
26 Feb - 19:36:52 10° W 19:43:39 59° S 19:50:53 10° ESE visible
26 Feb - 21:31:09 10° W 21:37:31 34° SSW 21:44:12 10° SE visible
26 Feb - 23:28:07 10° SW 23:31:07 13° SSW 23:34:10 10° S night (unlit)
27 Feb - 14:56:43 10° SW 15:02:15 30° SSE 15:07:58 10° E daylight
27 Feb - 16:49:24 10° WSW 16:55:50 57° S 17:02:36 10° E daylight
27 Feb - 18:43:04 10° W 18:49:44 62° S 18:56:51 10° ESE visible
27 Feb - 20:37:08 10° W 20:43:37 40° SSW 20:50:30 10° SE visible
27 Feb - 22:32:45 10° WSW 22:37:16 17° SSW 22:41:55 10° S visible
